Regional Weather Roundup
Issued by NWS Northern Indiana

Home | Current Version | Previous Version | Graphics & Text | Print | Product List | Glossary On
Versions: 1 2 3 4 5 6 7 8 9 10 11 12 13 14 15 16 17 18 19 20 21 22 23 24 25 26 27 28 29 30 31 32 33 34 35 36 37 38 39 40 41 42 43 44 45 46 47 48 49 50
000
ASUS43 KIWX 172110
RWRIWX

KIWX WEATHER ROUNDUP
NATIONAL WEATHER SERVICE NORTHERN INDIANA
500 PM EDT THU AUG 17 2017

NOTE: "FAIR" INDICATES FEW OR NO CLOUDS BELOW 12,000 FEET WITH NO
SIGNIFICANT WEATHER AND/OR OBSTRUCTIONS TO VISIBILITY.

* THESE STATIONS ARE NOT UNDER NWS QUALITY CONTROL. THEY ALSO MAY NOT
  REPORT WEATHER SUCH AS PRECIPITATION OR FOG.

INZ001>027-172200-
NORTHERN INDIANA

CITY           SKY/WX    TMP DP  RH WIND       PRES   REMARKS
GARY*          PTSUNNY   82  63  51 SW22G33   29.75R
VALPARAISO     CLOUDY    81  68  64 SW22      29.76F
LAPORTE*       CLOUDY    80  67  65 SW15G23   29.76F
KNOX*          MOSUNNY   81  66  61 SW17G23   29.76S
SOUTH BEND     CLOUDY    83  67  58 SW18G29   29.75S
ELKHART*       CLOUDY    82  68  61 SW12G17   29.74F
GOSHEN         PTSUNNY   82  68  62 SW17G25   29.75F
LOGANSPORT*    CLOUDY    81  68  65 SW22G28   29.80S
ROCHESTER*     PTSUNNY   82  70  65 SW14      29.78F
WARSAW*        PTSUNNY   81  70  69 W10G17    29.77S
AUBURN*        MOSUNNY   82  64  54 SW9       29.78S
FORT WAYNE     MOSUNNY   84  67  56 W18G24    29.78F
HUNTINGTON*    MOSUNNY   83  69  61 W15G22    29.79S
PERU/GRISSOM   MOSUNNY   82  71  68 W17       29.79S
MARION*        CLOUDY    81  70  69 W13G18    29.82S

$$
INZ028>050-172200-
CENTRAL INDIANA

CITY           SKY/WX    TMP DP  RH WIND       PRES   REMARKS
LAFAYETTE      MOSUNNY   84  70  62 SW13G24   29.78F
KOKOMO*        PTSUNNY   82  71  69 W13G21    29.81F
MUNCIE*        PTSUNNY   85  68  56 W7        29.82R
INDIANAPOLIS   PTSUNNY   84  68  58 SW17      29.83R

$$
MIZ043>046-050>051-056>058-064>065-071>073-077>080-172200-
SOUTHWEST LOWER MICHIGAN

CITY           SKY/WX    TMP DP  RH WIND       PRES   REMARKS
BATTLE CREEK   PTSUNNY   82  69  64 SW16      29.72F
BENTON HARBOR  MOSUNNY   84  65  52 SW22G30   29.72F
COLDWATER*     PTSUNNY   82  69  63 SW13G22   29.74F
HILLSDALE*     CLOUDY    79  70  73 SW7       29.75F
HOLLAND        CLOUDY    78  68  71 SW22G30   29.72S
GRAND RAPIDS   PTSUNNY   82  69  64 SW22      29.70F
KALAMAZOO      PTSUNNY   85  66  53 SW14      29.72F
STURGIS*       MOSUNNY   81  71  71 SW12G22   29.74F
THREE RIVERS*  PTSUNNY   85  67  54 SW14      29.73F

$$
OHZ001>008-015>018-024>025-172200-
NORTHWEST OHIO

CITY           SKY/WX    TMP DP  RH WIND       PRES   REMARKS
DEFIANCE       MOSUNNY   84  67  56 SW14G20   29.76F
FINDLAY        MOSUNNY   84  72  67 SW17G25   29.78F
TOLEDO EXPRESS MOSUNNY   82  74  76 SW13G20   29.75F
TOLEDO METCALF CLOUDY    84  74  71 SW13      29.77F
LIMA           PTSUNNY   82  75  79 SW12      29.81F

$$
AND FOR LAKE MICHIGAN COASTAL AND OPEN LAKE BUOY OBSERVATIONS

STATION/POSITION TEMP    WIND        PRES    VSBY  WAVE
                 AIR SEA DIR/SP/G                  HT/PER
                 (F)     (DEG/KT/KT) (MB)    (MI)  (FT/S)
CALUMET HARBOR    82     220/  8/ 17 1006.2S
MICHIGAN CITY     79     210/ 22/ 24   N/A
BURNS HARBOR      80     240/ 16/ 24 1007.5F
SAINT JOSEPH      77     210/ 14/ 19 1007.5S
SOUTH LAKE BUOY   74 71  230/ 12/ 16 1005.0R         3/ 5
4 MI NW BRIDGMAN  76 74  240/ 14/ 16 1006.2          2/ 3
MICHIGAN CITY     78 75  230/ 16/ 19   N/A           3/ 4

$$
&&




USA.gov is the U.S. government's official web portal to all federal, state and local government web resources and services.